Weather History for Petersburg, WV

Change the Weather History Date:

Tuesday, March 4, 2014

  Actual Average (KEKN) Record (KEKN)
Temperature  
Mean Temperature 25 °F 36 °F  
Max Temperature 55 °F 48 °F 77 °F (1976)
Min Temperature -5 °F 25 °F -10 °F (2014)
Degree Days  
Heating Degree Days 40 29  
Month to date heating degree days 117  
Since 1 July heating degree days 4438  
Cooling Degree Days 0 0  
Month to date cooling degree days 0  
Year to date cooling degree days 0  
Moisture  
Dew Point 11 °F    
Average Humidity 65    
Maximum Humidity 86    
Minimum Humidity 24    
Precipitation  
Precipitation 0.13 in 0.12 in 1.09 in (1917)
Month to date precipitation 0.47  
Year to date precipitation 6.80  
Snow  
Snow 0.00 in - - ()
Month to date snowfall  
Since 1 September snowfall  
Snow Depth -    
Sea Level Pressure  
Sea Level Pressure 30.27 in    
Wind  
Wind Speed 0 mph (North)    
Max Wind Speed 0 mph    
Max Gust Speed -    
Visibility 8 miles    
Events Fog    
T = Trace of Precipitation, MM = Missing Value Source: NWS Daily Summary

Daily Weather History Graph

Daily Weather History Graph

Search for Another Location

Airport:

Trip Planner

Search our weather history database for the weather conditions in past years. The results will help you decide how hot, cold, wet, or windy it might be!

Date:

Astronomy

Mar. 04, 2014 Rise Set
Actual Time 6:44 AM EST 6:12 PM EST
Civil Twilight 6:18 AM EST 6:39 PM EST
Nautical Twilight 5:47 AM EST 7:10 PM EST
Astronomical Twilight 5:16 AM EST 7:41 PM EST
Moon 8:31 AM EST (3/4) 10:15 PM EST (3/4)
Length of Visible Light 12h 21m
Length of Day
11h 27m
Waxing Crescent, 14% of the Moon is Illuminated
Mar 4
Waxing Crescent
Mar 8
First Quarter
Mar 16
Full
Mar 23
Last Quarter
Mar 30
New

Hourly Weather History & Observations

Time (EST) Temp. Dew Point Humidity Pressure Visibility Wind Dir Wind Speed Gust Speed Precip Events Conditions
12:15 AM -2.4 °F -7.2 °F 80% - 0.2 mi Calm Calm - N/A Fog Light Freezing Fog
12:35 AM -2.7 °F -7.4 °F 80% - 0.2 mi Calm Calm - N/A   Haze
12:55 AM -4.0 °F -9.2 °F 78% - 2.0 mi Calm Calm - N/A   Haze
1:15 AM -5.4 °F -10.5 °F 79% - 3.0 mi Calm Calm - N/A   Haze
1:35 AM -3.6 °F -8.5 °F 80% - 0.2 mi Calm Calm - N/A   Haze
1:55 AM -4.0 °F -8.9 °F 80% - 0.5 mi Calm Calm - N/A   Haze
2:10 AM -3.8 °F -8.5 °F 80% - 4.0 mi Calm Calm - N/A   Haze
2:35 AM -3.8 °F -8.5 °F 80% - 5.0 mi Calm Calm - N/A   Haze
2:55 AM -2.9 °F -7.6 °F 80% - 3.0 mi Calm Calm - N/A   Haze
3:15 AM -2.2 °F -6.9 °F 80% - 5.0 mi Calm Calm - N/A   Haze
3:35 AM 0.3 °F -4.2 °F 81% - 7.0 mi Calm Calm - N/A   Clear
3:55 AM -0.9 °F -5.6 °F 81% - 7.0 mi Calm Calm - N/A   Clear
4:15 AM -0.6 °F -5.4 °F 80% 30.34 in 5.0 mi Calm Calm - N/A   Haze
4:35 AM -0.4 °F -5.3 °F 80% 30.34 in 7.0 mi Calm Calm - N/A   Clear
4:55 AM -0.6 °F -5.6 °F 79% 30.35 in 7.0 mi Calm Calm - N/A   Clear
5:15 AM 0.3 °F -4.7 °F 79% 30.36 in 7.0 mi Calm Calm - N/A   Clear
5:35 AM 0.7 °F -4.4 °F 79% 30.36 in 10.0 mi Calm Calm - N/A   Clear
5:55 AM 1.4 °F -3.6 °F 79% 30.36 in 7.0 mi Calm Calm - N/A   Clear
6:15 AM 2.3 °F -2.9 °F 79% 30.36 in 7.0 mi Calm Calm - N/A   Clear
6:35 AM 2.5 °F -2.2 °F 81% 30.37 in 7.0 mi Calm Calm - N/A   Clear
6:50 AM 2.7 °F -2.2 °F 80% 30.37 in 7.0 mi Calm Calm - N/A   Clear
7:15 AM 3.0 °F -1.5 °F 82% 30.37 in 5.0 mi Calm Calm - N/A   Haze
7:35 AM 5.0 °F 0.3 °F 81% 30.38 in 5.0 mi Calm Calm - N/A   Haze
7:55 AM 7.5 °F 3.0 °F 82% 30.39 in 5.0 mi Calm Calm - N/A   Clear
8:15 AM 10.0 °F 5.5 °F 82% 30.39 in 5.0 mi Calm Calm - N/A   Haze
8:35 AM 18.1 °F 14.7 °F 86% 30.38 in 4.0 mi Calm Calm - N/A   Clear
8:55 AM 19.0 °F 14.0 °F 81% 30.39 in 5.0 mi Calm Calm - N/A   Haze
9:15 AM 20.5 °F 14.9 °F 79% 30.39 in 5.0 mi Calm Calm - N/A   Haze
9:35 AM 21.6 °F 14.0 °F 73% 30.38 in 7.0 mi Calm Calm - N/A   Clear
9:55 AM 25.2 °F 13.8 °F 62% 30.37 in 7.0 mi Calm Calm - N/A   Clear
10:15 AM 30.7 °F 18.9 °F 61% 30.36 in 7.0 mi Calm Calm - N/A   Clear
10:35 AM 36.0 °F 16.7 °F 46% 30.36 in 7.0 mi Calm Calm - N/A   Clear
10:55 AM 38.8 °F 20.1 °F 47% 30.34 in 10.0 mi Calm Calm - 0.01 in   Clear
11:15 AM 38.1 °F 19.6 °F 47% 30.34 in 10.0 mi Calm Calm - N/A   Clear
11:35 AM 41.7 °F 21.7 °F 45% 30.34 in 10.0 mi Calm Calm - 0.01 in   Clear
11:55 AM 40.6 °F 12.0 °F 31% 30.33 in 10.0 mi Calm Calm - 0.06 in   Clear
12:15 PM 45.0 °F 15.8 °F 31% 30.32 in 10.0 mi Calm Calm - 0.01 in   Clear
12:35 PM 49.1 °F 15.8 °F 27% 30.31 in 10.0 mi Calm Calm - 0.05 in   Clear
12:55 PM 50.7 °F 14.7 °F 24% 30.28 in 10.0 mi Calm Calm - 0.06 in   Clear
1:15 PM 47.1 °F 16.3 °F 29% 30.27 in 10.0 mi Calm Calm - N/A   Clear
1:35 PM 45.9 °F 16.9 °F 31% 30.25 in 10.0 mi Calm Calm - N/A   Clear
1:55 PM 51.4 °F 19.2 °F 28% 30.24 in 10.0 mi Calm Calm - N/A   Clear
2:15 PM 55.2 °F 23.7 °F 30% 30.22 in 10.0 mi Calm Calm - N/A   Clear
2:35 PM 43.5 °F 17.8 °F 36% 30.21 in 10.0 mi Calm Calm - N/A   Clear
2:55 PM 50.2 °F 20.8 °F 32% 30.20 in 10.0 mi Calm Calm - N/A   Clear
3:15 PM 50.5 °F 21.7 °F 32% 30.19 in 10.0 mi Calm Calm - N/A   Clear
3:35 PM 46.0 °F 23.0 °F 40% 30.18 in 10.0 mi Calm Calm - N/A   Clear
3:55 PM 45.1 °F 22.3 °F 40% 30.17 in 10.0 mi Calm Calm - N/A   Clear
4:15 PM 44.6 °F 21.7 °F 40% 30.17 in 10.0 mi Calm Calm - N/A   Clear
4:35 PM 42.1 °F 20.5 °F 42% 30.17 in 10.0 mi Calm Calm - N/A   Clear
4:55 PM 39.4 °F 20.3 °F 46% 30.17 in 10.0 mi Calm Calm - N/A   Clear
5:15 PM 38.7 °F 19.8 °F 47% 30.17 in 10.0 mi Calm Calm - N/A   Clear
5:35 PM 36.1 °F 19.2 °F 50% 30.17 in 10.0 mi Calm Calm - N/A   Clear
5:55 PM 33.6 °F 18.9 °F 55% 30.17 in 10.0 mi Calm Calm - N/A   Clear
6:15 PM 31.8 °F 20.5 °F 63% 30.18 in 10.0 mi Calm Calm - N/A   Clear
6:35 PM 29.8 °F 18.3 °F 62% 30.17 in 10.0 mi Calm Calm - N/A   Clear
6:55 PM 29.1 °F 20.1 °F 69% 30.17 in 10.0 mi Calm Calm - N/A   Clear
7:15 PM 28.9 °F 21.6 °F 74% 30.18 in 10.0 mi Calm Calm - N/A   Clear
7:35 PM 27.3 °F 20.3 °F 75% 30.19 in 10.0 mi Calm Calm - N/A   Clear
7:55 PM 27.5 °F 22.1 °F 80% 30.18 in 10.0 mi Calm Calm - N/A   Clear
8:15 PM 26.6 °F 20.1 °F 77% 30.19 in 10.0 mi Calm Calm - N/A   Clear
8:35 PM 26.4 °F 20.7 °F 79% 30.19 in 10.0 mi Calm Calm - N/A   Clear
8:55 PM 26.1 °F 21.4 °F 82% 30.19 in 10.0 mi Calm Calm - N/A   Clear
9:15 PM 24.8 °F 19.8 °F 81% 30.19 in 10.0 mi Calm Calm - N/A   Clear
9:35 PM 23.0 °F 17.6 °F 80% 30.19 in 10.0 mi Calm Calm - N/A   Clear
9:55 PM 24.1 °F 19.9 °F 84% 30.20 in 10.0 mi Calm Calm - N/A   Clear
10:15 PM 23.7 °F 19.0 °F 82% 30.20 in 10.0 mi Calm Calm - N/A   Clear
10:35 PM 23.2 °F 18.5 °F 82% 30.20 in 10.0 mi Calm Calm - N/A   Clear
10:55 PM 23.0 °F 18.0 °F 81% 30.20 in 10.0 mi Calm Calm - N/A   Clear
11:15 PM 22.5 °F 17.8 °F 82% 30.20 in 10.0 mi Calm Calm - N/A   Clear
11:35 PM 22.8 °F 17.6 °F 80% 30.19 in 10.0 mi Calm Calm - N/A   Clear
11:55 PM 22.8 °F 17.8 °F 81% 30.20 in 10.0 mi Calm Calm - N/A   Clear